NOAA NWS Hourly Roundups by Site

Regional Weather Roundup for Seattle, WA

To Select Another Site Choose from List

Select Site:  

348
ASUS46 KSEW 202210
RWRWA

WASHINGTON REGIONAL WEATHER ROUNDUP
NATIONAL WEATHER SERVICE SEATTLE WA
300 PM PDT TUE AUG 20 2019

NOTE:"FAIR" INDICATES FEW OR NO CLOUDS BELOW 12,000 FEET WITH NO
SIGNIFICANT WEATHER AND/OR OBSTRUCTIONS TO VISIBILITY.

WAZ507-509-555>559-202300-
SEATTLE, TACOMA, EVERETT, AND VICINITY

CITY           SKY/WX    TMP DP  RH WIND       PRES   REMARKS
EVERETT        PTSUNNY   80  54  40 S7        29.93S
BOEING FIELD   CLOUDY    81  54  39 S9        29.90F
RENTON         PTSUNNY   80  55  42 S9        29.91F
SEATAC AIRPORT CLOUDY    78  55  44 VRB6      29.93F
JBLM-MCCHORD   PTSUNNY   83  64  52 NW8       29.91F
PUYALLUP       FAIR      84  55  37 CALM      29.92F
BREMERTON      PTSUNNY   81  58  45 SW17      29.91F
JBLM-FT LEWIS  NOT AVBL
TACOMA NARROWS PTSUNNY   78  56  46 VRB5      29.91F
$$

WAZ001-503-506-510-514-515-202300-
NORTH INTERIOR

CITY           SKY/WX    TMP DP  RH WIND       PRES   REMARKS
BELLINGHAM     PTSUNNY   75  55  49 VRB6      29.90F
FRIDAY HARBOR  CLOUDY    73  52  47 S6        29.92F
EASTSOUND      CLOUDY    70  55  60 NW5       29.90F
PORT ANGELES   CLOUDY    70  52  52 VRB3      29.92F
EDIZ HOOK      FAIR      60  53  76 S5        29.91F
PORT TOWNSEND  FAIR      73  55  53 SW6       29.89F
NAS WHIDBEY    PTSUNNY   70  53  54 NW6       29.94F
ARLINGTON      PTSUNNY   81  57  43 S7        29.91S
BURLINGTON     SUNNY     82  57  42 S10       29.90S
$$

WAZ020-022-039-040-504-511-512-202300-
SOUTHWEST INTERIOR

CITY           SKY/WX    TMP DP  RH WIND       PRES   REMARKS
SHELTON        PTSUNNY   81  57  43 SW15      29.90F
OLYMPIA        PTSUNNY   83  55  38 S13       29.90F
CHEHALIS       FAIR      84  61  45 CALM      29.91F
KELSO          PTSUNNY   82  59  45 VRB5      29.92F
VANCOUVER      PTSUNNY   84  56  38 CALM      29.90F
SCAPPOOSE, OR  PTSUNNY   82  58  43 E7        29.90F
PORTLAND, OR   PTSUNNY   85  56  37 E8        29.90F
$$

WAZ021-516-517-202300-
WASHINGTON COAST

CITY           SKY/WX    TMP DP  RH WIND       PRES   REMARKS
FORKS          CLOUDY    67  55  65 SW12G22   29.94R
HOQUIAM        CLOUDY    70  56  61 W18       29.96S HAZE
ASTORIA, OR    CLOUDY    67  58  72 SW10      29.96S
$$

WAZ019-023-024-040-567>569-202300-
CASCADE MOUNTAINS AND COLUMBIA GORGE

CITY           SKY/WX    TMP DP  RH WIND       PRES   REMARKS
STAMPEDE PASS  PTSUNNY   73  52  47 VRB6      30.05S
TROUTDALE, OR  PTSUNNY   84  56  38 CALM      29.90F
HOOD RIVER, OR PTCLDY    86  52  30 W8G23     29.88F
THE DALLES, OR MOSUNNY   93  54  26 NW14      29.83F HX  91
$$

WAZ026-027-041>044-520-521-202300-
EAST SLOPES

CITY           SKY/WX    TMP DP  RH WIND       PRES   REMARKS
OMAK           MOSUNNY   93  43  17 SW9       29.88F
WENATCHEE      PTSUNNY   89  43  20 SE14      29.87F
ELLENSBURG     PTSUNNY   92  48  22 E9        29.90F
YAKIMA         PTSUNNY   90  49  24 SE9       29.87F
SUNNYSIDE ARPT PTCLDY    89  55  30 SE3       29.86F
YAKIMA TC      FAIR      94  41  16 S12       29.86F
$$

WAZ028-034-035-202300-
COLUMBIA BASIN

CITY           SKY/WX    TMP DP  RH WIND       PRES   REMARKS
EPHRATA        MOSUNNY   92  41  17 S9        29.89F
MOSES LAKE     MOSUNNY   94  40  15 SW8       29.89F HX  90
PASCO          MOSUNNY   95  51  22 N6        29.84F HX  92
RICHLAND ARPT  PTCLDY    94  49  21 E3        29.84  HX  90
HERMISTON, OR  MOSUNNY   93  53  25 W5        29.84F HX  90
$$

WAZ036>038-202300-
NORTHEAST WASHINGTON

CITY           SKY/WX    TMP DP  RH WIND       PRES   REMARKS
SPOKANE GEIGER PTSUNNY   89  45  21 CALM      29.96F
SPOKANE FELTS  SUNNY     91  40  16 CALM      29.94F
FAIRCHILD AFB  SUNNY     88  40  19 SE6       29.97F
COEURDALENE,ID SUNNY     89  42  19 S6        29.97F HAZE
DEER PARK      SUNNY     88  42  20 CALM      29.97F
$$

WAZ029>033-202300-
SOUTHEAST WASHINGTON

CITY           SKY/WX    TMP DP  RH WIND       PRES   REMARKS
PULLMAN        SUNNY     93  37  14 CALM      29.96F
LEWISTON, ID   SUNNY     96  44  16 VRB3      29.85F HX  92
WALLA WALLA    SUNNY     94  52  24 S10       29.86F HX  91
PENDLETON, OR  MOSUNNY   94  46  19 NW8G16    29.87F HX  90
$$



 

View Past Reports for Seattle, WA.

Products Courtesy of NOAA-NWS
NWS Information Parsing Script by Ken True at Saratoga Weather - Script by SE Lincoln Weather.